Temp
88 88 88 88 87 88 87 87 87 86 87 87 87 87 88 88 85 84 83 82 81 81 81 81 81 81 81 81 81 81 82 81 81 81 80 80 81 81 80 79 79 78 80 80 81 81 81 84 83 84 83 83 82 82 81 82 82 83 82 81 81 81 80
87 88 88 89 87 87 87 87 87 86 86 87 87 87 88 87 85 84 83 82 82 81 81 81 81 81 81 81 81 81 81 81 81 82 81 79 79 81 82 81 81 79 79 81 80 81 82 83 83 83 83 83 83 82 82 81 82 82 81 81 81 80 81
87 88 88 88 87 87 85 86 86 87 86 87 88 88 88 86 86 84 83 82 82 82 82 82 81 81 82 81 81 81 81 82 81 81 81 81 80 82 83 82 82 81 81 81 82 82 83 82 82 83 83 83 84 82 81 82 81 81 81 80 81 81 80
87 88 88 89 88 87 86 86 86 88 88 88 88 89 88 86 87 85 84 84 82 82 81 82 82 82 82 81 81 81 81 81 82 82 83 83 82 82 82 82 82 83 81 81 84 85 86 83 82 82 84 82 83 82 82 82 82 82 81 81 80 80 79
87 88 88 88 88 86 86 86 86 87 88 89 89 89 89 87 88 87 86 85 85 83 83 83 84 83 83 82 82 82 82 82 82 83 83 83 83 83 82 83 83 83 83 84 83 83 83 83 82 82 82 82 83 82 82 82 82 82 80 81 80 80 80
87 87 87 87 87 87 87 87 87 88 88 89 89 89 90 90 90 88 87 85 85 85 84 84 84 83 82 83 83 83 82 82 82 82 83 83 83 83 83 83 83 84 84 84 84 84 84 84 84 83 83 83 84 84 83 82 83 82 81 80 81 81 80
87 86 86 87 87 87 88 88 88 89 90 90 91 91 91 91 90 89 88 86 85 84 84 84 84 84 83 83 83 83 82 82 82 82 83 83 83 83 83 83 84 84 85 85 84 84 84 84 85 84 84 84 83 84 83 82 82 82 81 80 80 80 80
87 86 86 88 88 89 89 88 89 90 90 90 91 91 91 92 92 90 89 87 86 86 85 85 84 84 83 83 84 83 83 83 83 83 83 84 84 83 84 84 84 85 84 84 85 85 85 85 86 85 85 85 83 83 83 82 82 82 82 80 79 81 82
88 88 87 89 89 90 90 89 90 90 89 89 90 90 91 91 92 91 90 88 87 86 85 86 86 86 84 84 83 83 83 83 83 83 83 84 84 84 85 85 85 85 85 85 86 86 85 85 86 84 84 84 83 82 82 82 83 82 82 81 80 80 82
89 87 88 90 91 91 90 90 90 88 87 88 88 89 90 91 92 92 91 90 88 87 86 87 87 86 85 84 84 84 84 83 84 84 84 84 85 85 86 86 86 85 85 85 86 86 85 85 85 84 83 84 83 82 82 82 83 83 82 82 81 81 80
90 88 87 89 89 89 89 90 88 86 87 87 87 90 90 90 91 92 92 91 89 88 88 88 88 87 86 85 84 85 84 83 84 84 84 85 86 86 87 87 87 86 86 86 87 87 86 84 85 83 83 84 83 83 82 82 83 82 83 82 83 82 82
84 87 86 88 89 88 88 88 87 86 86 87 88 89 88 88 90 91 92 92 92 89 88 88 88 88 87 86 85 84 84 83 84 84 85 85 86 87 88 88 87 87 87 87 87 87 87 85 85 84 83 84 84 83 83 82 83 82 83 83 83 82 83
82 88 87 88 88 88 88 86 86 86 86 87 89 89 88 89 90 91 91 91 92 91 90 89 88 88 87 86 85 84 84 84 84 84 85 85 86 87 88 88 88 88 88 88 88 88 88 87 86 85 84 84 84 84 84 83 83 82 82 83 83 82 82
82 81 81 82 83 87 86 85 86 86 86 87 88 89 89 90 91 91 91 91 92 92 91 90 89 88 87 86 85 84 84 84 84 85 85 86 86 86 88 88 88 88 88 88 88 88 88 88 86 86 85 85 85 85 84 83 82 82 82 83 83 83 82
79 79 80 80 78 78 80 81 83 85 86 87 88 88 89 90 91 91 91 91 92 93 91 90 89 88 87 86 84 83 84 84 85 85 85 85 85 85 86 87 87 87 87 87 88 90 89 89 88 86 85 85 84 84 85 84 83 83 82 82 82 83 82
77 77 77 78 77 78 78 79 77 77 78 77 79 82 88 88 89 91 90 91 92 92 92 90 88 87 87 86 84 84 84 84 84 84 84 85 84 85 86 87 87 88 87 87 88 88 88 88 88 87 86 85 84 84 84 84 84 81 76 78 83 82 84
74 75 75 75 76 76 74 77 79 79 77 75 75 73 73 72 73 77 86 92 93 91 92 91 88 87 87 85 85 84 84 83 83 84 83 84 85 85 85 86 87 87 86 86 87 87 86 86 87 87 87 86 85 84 84 84 85 76 70 72 75 82 82
72 72 73 73 74 74 72 74 76 78 79 77 72 73 73 74 75 76 73 73 82 94 93 91 89 88 86 86 85 84 83 83 83 83 83 83 83 84 85 86 86 85 85 86 86 85 87 86 86 86 87 87 86 85 85 85 80 71 69 70 70 76 83
70 71 71 72 71 69 70 71 74 75 77 81 81 74 73 75 77 76 76 76 74 82 92 92 90 88 86 86 85 84 84 83 83 83 83 83 84 84 84 84 85 85 85 86 87 87 85 85 85 86 86 86 85 85 86 85 77 69 68 69 69 70 79
69 70 70 71 72 72 72 72 72 74 73 76 81 84 83 80 80 81 81 79 77 76 87 91 90 88 87 85 85 84 84 84 83 83 83 83 84 84 84 84 84 87 87 87 86 85 85 86 85 84 85 86 85 84 86 85 77 67 66 67 67 68 73
67 68 68 69 69 70 71 72 73 75 76 77 79 82 84 84 86 87 87 84 80 82 88 91 89 87 86 85 85 85 84 84 83 83 83 83 84 83 84 84 84 86 87 87 86 85 85 86 85 84 84 86 86 85 85 86 73 65 64 64 64 66 70
67 67 67 68 68 69 70 72 72 73 73 75 78 79 82 83 86 89 88 88 89 89 89 88 87 85 86 85 85 85 85 85 84 83 83 83 83 83 83 83 84 84 86 87 87 87 87 86 87 85 85 86 87 86 85 87 69 64 63 63 63 65 74
67 67 68 68 70 70 71 71 71 73 74 75 76 78 80 82 85 86 87 87 89 87 89 88 87 85 85 86 86 86 86 85 84 84 83 84 83 83 83 83 83 84 86 86 87 86 86 86 87 87 86 86 85 85 85 86 71 63 62 62 62 65 77
68 68 68 68 69 70 69 70 72 73 75 75 76 79 81 83 84 85 84 85 87 89 89 89 87 85 84 86 87 87 87 86 85 84 84 84 83 83 84 85 85 86 86 86 87 87 87 87 87 87 88 87 86 86 85 87 73 61 61 61 60 68 78
67 67 67 67 67 67 67 69 70 72 74 73 74 76 77 79 81 83 84 85 87 88 88 87 87 87 85 86 88 88 87 86 85 85 85 84 84 85 85 85 85 86 86 87 88 88 87 87 87 87 87 88 88 83 84 87 75 59 61 60 59 67 79
63 65 65 67 68 67 68 69 69 70 70 71 72 74 76 78 79 80 81 83 86 86 86 87 88 88 88 87 87 87 87 87 85 85 85 85 85 85 85 85 86 86 87 87 88 88 87 87 86 86 87 87 88 88 87 86 79 66 59 59 58 62 79
64 65 64 65 65 66 67 67 68 68 69 70 71 74 75 76 76 76 78 80 82 83 86 87 88 87 87 86 88 88 87 87 86 86 87 86 86 86 86 86 86 86 86 86 87 87 86 86 86 87 86 87 87 88 87 89 83 69 57 57 57 59 69
64 64 65 65 66 66 65 66 66 67 68 69 71 72 73 73 72 73 75 77 78 82 87 88 87 86 86 86 87 88 88 88 87 87 87 87 86 85 84 85 86 86 86 86 85 85 84 84 84 86 86 86 87 87 87 86 81 78 58 57 56 57 61
60 61 61 62 63 65 65 63 64 65 66 69 70 71 71 72 71 72 74 75 78 82 85 87 87 86 86 85 86 87 87 87 86 86 88 87 86 85 84 84 85 85 84 84 84 83 84 82 83 84 84 85 86 87 87 86 83 71 67 57 56 55 57
61 61 62 63 64 64 64 63 64 64 66 68 69 69 70 70 70 71 73 75 80 82 84 85 86 85 86 85 86 87 87 87 87 87 88 86 85 85 84 84 84 84 84 84 83 83 83 83 81 83 83 84 84 85 87 85 86 71 66 63 55 55 56
60 60 61 61 63 64 64 63 62 64 65 67 67 69 70 71 71 72 73 77 81 82 83 84 85 84 85 86 86 86 88 88 87 87 87 87 86 84 84 84 84 83 83 83 83 83 82 82 82 82 83 83 83 84 86 86 84 80 69 63 58 56 55
60 61 61 62 62 62 63 63 63 63 64 65 67 68 70 71 73 73 76 81 82 84 84 84 84 84 85 86 86 87 88 87 87 87 87 86 86 85 85 84 84 83 83 83 83 83 82 82 82 82 82 82 83 83 84 85 84 80 75 67 63 60 57
60 60 60 59 60 61 62 62 62 63 63 64 66 68 70 71 72 73 76 80 82 84 84 84 83 83 84 85 86 86 87 87 86 86 86 86 86 86 85 85 85 83 82 83 83 83 83 82 82 82 82 82 83 83 83 84 84 81 78 73 69 68 65
59 60 60 60 61 62 62 62 62 62 63 63 65 68 69 70 71 73 76 80 83 85 84 82 83 84 85 86 86 86 87 86 83 84 85 86 86 85 85 85 84 84 83 83 83 83 82 83 82 82 83 83 84 83 82 83 83 81 79 74 72 71 70
59 59 58 58 60 61 60 61 61 61 62 63 66 67 68 68 70 72 75 78 80 82 84 83 82 83 85 85 86 85 85 85 85 85 86 85 85 86 85 85 84 84 85 87 86 86 85 84 84 84 86 85 85 84 82 82 82 82 70 76 67 71 72
59 58 58 59 60 60 61 61 61 61 62 63 65 66 66 67 68 71 73 75 76 79 81 82 82 83 84 85 85 85 84 84 85 85 85 85 85 85 83 77 70 79 86 84 77 73 71 70 83 86 87 86 86 86 84 84 86 70 60 59 58 58 61
58 57 58 59 59 60 60 60 61 61 62 63 64 64 65 66 67 69 70 72 74 76 78 81 82 82 83 84 84 83 83 84 85 85 85 85 84 83 82 76 68 51 50 61 71 67 60 58 63 67 71 83 85 81 73 73 70 59 57 56 55 54 55
58 57 58 59 59 60 59 59 59 60 61 63 63 63 64 65 66 67 69 70 71 73 76 79 81 82 83 84 84 82 81 84 84 84 83 84 84 84 81 77 74 69 55 46 52 60 58 56 57 59 60 65 72 79 80 68 60 53 54 54 54 53 53
MSLP
1003.78 1004.26 1004.58 1004.85 1005.34 1005.58 1005.82 1006.02 1006.22 1006.61 1006.90 1007.26 1007.58 1008.05 1008.49 1008.78 1009.22 1009.73 1010.38 1010.85 1011.41 1012.05 1012.29 1012.58 1012.90 1013.14 1013.46 1013.66 1013.85 1014.02 1014.17 1014.49 1014.73 1015.02 1015.29 1015.53 1015.66 1015.93 1016.22 1016.29 1016.49 1016.70 1016.78 1017.09 1017.14 1017.22 1017.17 1017.09 1017.34 1017.46 1017.58 1017.70 1017.90 1018.02 1018.14 1018.22 1018.38 1018.49 1018.66 1018.85 1019.14 1019.38 1019.49
1003.85 1003.97 1004.26 1004.41 1004.93 1005.22 1005.34 1005.46 1005.78 1006.26 1006.61 1006.90 1007.22 1007.53 1007.93 1008.34 1008.78 1009.41 1009.90 1010.41 1010.93 1011.49 1011.97 1012.34 1012.70 1012.90 1013.05 1013.29 1013.41 1013.66 1013.97 1014.14 1014.34 1014.58 1014.85 1015.22 1015.29 1015.46 1015.58 1015.90 1016.09 1016.41 1016.46 1016.53 1016.70 1016.78 1016.85 1016.93 1017.05 1017.29 1017.49 1017.53 1017.70 1017.78 1017.93 1018.05 1018.22 1018.41 1018.61 1018.73 1019.05 1019.29 1019.38
1003.22 1003.26 1003.53 1003.90 1004.38 1004.70 1005.05 1005.26 1005.49 1005.70 1006.17 1006.53 1006.78 1007.09 1007.38 1007.73 1008.17 1008.85 1009.49 1010.09 1010.73 1011.17 1011.61 1011.97 1012.26 1012.53 1012.78 1013.02 1013.29 1013.46 1013.58 1013.82 1014.09 1014.38 1014.73 1014.90 1015.05 1015.09 1015.22 1015.41 1015.66 1015.97 1016.09 1016.14 1016.34 1016.53 1016.49 1016.78 1016.82 1016.97 1017.17 1017.46 1017.53 1017.66 1017.73 1017.90 1018.05 1018.22 1018.41 1018.58 1018.82 1019.09 1019.26
1002.29 1002.46 1002.46 1002.49 1002.97 1003.58 1004.26 1004.70 1005.09 1005.26 1005.49 1005.82 1006.14 1006.38 1006.85 1007.41 1007.66 1008.29 1008.85 1009.38 1010.14 1010.73 1011.34 1011.58 1011.93 1012.34 1012.58 1012.93 1013.14 1013.26 1013.41 1013.49 1013.61 1013.85 1014.09 1014.29 1014.61 1014.70 1015.02 1015.26 1015.38 1015.53 1015.93 1016.05 1015.97 1016.09 1016.22 1016.38 1016.66 1016.82 1016.90 1017.22 1017.38 1017.46 1017.58 1017.78 1017.90 1018.05 1018.26 1018.46 1018.73 1018.82 1018.93
1001.66 1001.70 1002.34 1002.90 1003.26 1003.73 1004.22 1004.53 1004.78 1004.90 1005.17 1005.29 1005.58 1005.90 1006.26 1006.78 1007.17 1007.85 1008.38 1008.73 1009.17 1009.93 1010.34 1010.90 1011.34 1011.78 1012.17 1012.46 1012.70 1012.82 1012.93 1013.05 1013.29 1013.41 1013.61 1013.82 1014.05 1014.34 1014.73 1014.97 1015.09 1015.29 1015.41 1015.53 1015.70 1015.90 1016.05 1016.26 1016.46 1016.61 1016.82 1016.93 1017.17 1017.34 1017.49 1017.58 1017.78 1017.90 1018.22 1018.34 1018.70 1018.73 1018.85
1001.90 1002.17 1002.41 1002.73 1003.05 1003.34 1003.61 1003.90 1004.14 1004.38 1004.78 1005.14 1005.34 1005.70 1005.90 1006.26 1006.61 1007.29 1007.78 1008.34 1008.82 1009.22 1009.73 1010.34 1010.85 1011.22 1011.70 1011.85 1012.22 1012.46 1012.61 1012.73 1012.78 1012.97 1013.26 1013.49 1013.82 1014.17 1014.38 1014.46 1014.66 1014.90 1015.17 1015.26 1015.34 1015.49 1015.66 1015.90 1016.14 1016.34 1016.66 1016.73 1016.90 1017.14 1017.26 1017.49 1017.61 1017.73 1017.97 1018.22 1018.46 1018.61 1018.82
1001.70 1001.93 1002.26 1002.49 1002.73 1003.05 1003.29 1003.58 1003.78 1003.93 1004.05 1004.29 1004.53 1004.85 1005.29 1005.78 1006.26 1006.66 1007.17 1007.90 1008.26 1008.97 1009.49 1009.93 1010.22 1010.70 1011.09 1011.41 1011.82 1012.09 1012.41 1012.53 1012.70 1012.90 1012.97 1013.26 1013.41 1013.70 1013.90 1014.05 1014.17 1014.38 1014.49 1014.70 1015.05 1015.14 1015.41 1015.61 1015.73 1015.93 1016.17 1016.41 1016.66 1016.82 1017.05 1017.26 1017.46 1017.49 1017.73 1018.05 1018.29 1018.38 1018.49
1001.41 1001.97 1002.09 1002.17 1002.41 1002.58 1002.82 1003.05 1003.29 1003.49 1003.70 1003.93 1004.38 1004.82 1005.17 1005.38 1005.78 1006.26 1006.78 1007.26 1007.82 1008.26 1008.70 1009.22 1009.73 1010.09 1010.58 1010.93 1011.29 1011.70 1011.97 1012.17 1012.26 1012.46 1012.66 1012.93 1013.14 1013.38 1013.53 1013.73 1013.90 1013.97 1014.22 1014.61 1014.58 1014.73 1015.02 1015.22 1015.34 1015.53 1015.82 1016.14 1016.38 1016.49 1016.66 1016.85 1017.05 1017.26 1017.46 1017.90 1018.14 1018.26 1018.26
1000.82 1001.09 1001.61 1001.78 1001.85 1002.05 1002.29 1002.58 1002.78 1003.05 1003.46 1003.85 1004.14 1004.38 1004.70 1004.97 1005.26 1005.61 1006.17 1006.73 1007.17 1007.66 1008.14 1008.38 1008.90 1009.38 1009.85 1010.41 1010.85 1011.22 1011.49 1011.82 1012.09 1012.22 1012.46 1012.70 1012.85 1013.05 1013.17 1013.34 1013.49 1013.61 1014.02 1014.26 1014.34 1014.38 1014.58 1014.82 1014.97 1015.26 1015.49 1015.82 1016.05 1016.29 1016.46 1016.58 1016.73 1016.85 1017.14 1017.49 1017.78 1018.02 1018.05
1000.05 1000.61 1000.73 1000.78 1000.82 1001.17 1001.66 1002.02 1002.34 1002.85 1003.41 1003.73 1003.93 1004.17 1004.29 1004.41 1004.70 1005.14 1005.61 1006.09 1006.61 1007.22 1007.58 1007.97 1008.34 1008.85 1009.41 1009.90 1010.38 1010.70 1011.09 1011.46 1011.61 1011.93 1012.09 1012.38 1012.41 1012.70 1012.78 1012.90 1013.14 1013.26 1013.58 1013.78 1013.93 1014.26 1014.29 1014.38 1014.61 1014.93 1015.22 1015.53 1015.82 1016.02 1016.22 1016.38 1016.46 1016.58 1016.70 1017.02 1017.29 1017.61 1017.78
999.22 999.61 1000.26 1000.49 1000.73 1001.02 1001.38 1001.85 1002.38 1002.78 1002.93 1003.22 1003.41 1003.53 1003.78 1004.05 1004.38 1004.70 1005.05 1005.41 1006.02 1006.49 1006.85 1007.38 1007.73 1008.29 1008.82 1009.38 1009.97 1010.29 1010.66 1010.97 1011.17 1011.53 1011.73 1011.90 1012.02 1012.22 1012.34 1012.53 1012.73 1012.90 1013.17 1013.38 1013.70 1013.82 1014.05 1014.26 1014.29 1014.70 1015.02 1015.29 1015.49 1015.70 1015.90 1016.02 1016.09 1016.29 1016.46 1016.58 1016.70 1017.02 1017.29
1000.05 1000.02 1000.22 1000.17 1000.38 1000.70 1001.26 1001.41 1001.70 1002.17 1002.58 1002.82 1002.93 1003.14 1003.46 1003.73 1004.02 1004.26 1004.53 1004.85 1005.09 1005.90 1006.38 1006.78 1007.17 1007.73 1008.34 1008.82 1009.46 1009.85 1010.17 1010.46 1010.78 1011.05 1011.29 1011.49 1011.61 1011.73 1011.85 1012.02 1012.29 1012.53 1012.73 1012.85 1013.26 1013.41 1013.61 1013.93 1014.14 1014.34 1014.70 1014.82 1015.02 1015.17 1015.38 1015.53 1015.70 1015.90 1016.05 1016.22 1016.38 1016.61 1016.85
999.78 999.73 1000.26 1000.22 1000.26 1000.38 1000.49 1001.14 1001.58 1001.73 1001.90 1002.09 1002.34 1002.66 1003.17 1003.58 1003.85 1004.02 1004.29 1004.53 1004.70 1005.05 1005.61 1006.14 1006.70 1007.22 1007.82 1008.29 1008.85 1009.34 1009.70 1010.02 1010.26 1010.49 1010.78 1010.97 1011.09 1011.22 1011.41 1011.61 1011.82 1012.09 1012.41 1012.41 1012.70 1013.02 1013.29 1013.46 1013.78 1013.90 1014.17 1014.41 1014.58 1014.85 1015.02 1015.22 1015.38 1015.58 1015.73 1015.90 1016.09 1016.34 1016.58
1002.05 1002.61 1002.46 1001.53 1000.78 1000.49 1000.82 1001.02 1001.09 1001.38 1001.61 1001.90 1002.26 1002.41 1002.90 1003.26 1003.49 1003.78 1003.97 1004.26 1004.34 1004.58 1005.09 1005.53 1006.14 1006.73 1007.26 1007.82 1008.41 1008.82 1009.14 1009.38 1009.61 1009.93 1010.17 1010.34 1010.58 1010.78 1010.93 1011.17 1011.38 1011.61 1011.82 1012.05 1012.41 1012.58 1012.73 1013.02 1013.29 1013.46 1013.66 1013.97 1014.17 1014.34 1014.53 1014.85 1015.14 1015.29 1015.41 1015.58 1015.73 1016.02 1016.26
1003.34 1003.58 1003.34 1003.14 1003.14 1003.02 1002.90 1002.66 1002.22 1001.93 1001.93 1001.93 1002.05 1002.49 1002.78 1003.09 1003.34 1003.53 1003.73 1003.82 1003.97 1004.17 1004.61 1004.93 1005.66 1006.34 1006.82 1007.38 1007.97 1008.26 1008.49 1008.82 1009.17 1009.46 1009.78 1010.02 1010.26 1010.46 1010.61 1010.73 1010.93 1011.17 1011.41 1011.73 1011.97 1012.05 1012.17 1012.29 1012.66 1013.14 1013.46 1013.61 1013.85 1014.09 1014.22 1014.58 1014.78 1014.90 1015.05 1015.34 1015.49 1015.58 1015.90
1004.41 1004.29 1004.46 1004.58 1004.53 1004.49 1004.34 1004.34 1004.26 1004.17 1004.05 1004.09 1004.05 1003.73 1003.41 1003.49 1003.58 1003.58 1003.78 1003.85 1003.82 1004.14 1004.26 1004.61 1005.34 1005.90 1006.46 1007.02 1007.41 1007.78 1008.05 1008.41 1008.78 1009.14 1009.41 1009.73 1009.97 1010.09 1010.17 1010.34 1010.58 1010.82 1011.14 1011.38 1011.53 1011.70 1011.85 1012.05 1012.29 1012.66 1013.02 1013.38 1013.58 1013.73 1013.97 1014.17 1014.22 1014.29 1014.46 1014.61 1014.90 1015.17 1015.34
1005.49 1005.22 1005.17 1005.41 1005.29 1005.26 1005.38 1005.02 1004.73 1004.58 1004.58 1004.58 1004.58 1004.73 1004.46 1004.46 1004.90 1005.26 1005.09 1004.34 1003.97 1004.09 1003.97 1004.41 1005.17 1005.66 1006.05 1006.61 1006.90 1007.34 1007.73 1008.14 1008.46 1008.73 1009.17 1009.29 1009.49 1009.70 1009.90 1010.05 1010.17 1010.46 1010.73 1010.93 1011.17 1011.41 1011.61 1011.85 1012.17 1012.38 1012.58 1012.85 1013.17 1013.49 1013.58 1013.70 1013.70 1013.85 1014.09 1014.29 1014.41 1014.70 1015.02
1006.38 1006.17 1005.93 1005.93 1006.14 1006.02 1006.02 1005.78 1005.46 1005.17 1004.93 1004.85 1004.66 1004.38 1004.85 1004.49 1004.02 1004.22 1005.34 1006.61 1006.22 1004.05 1003.82 1004.26 1004.82 1005.29 1005.70 1005.97 1006.46 1006.90 1007.34 1007.73 1008.05 1008.38 1008.70 1008.93 1009.22 1009.38 1009.49 1009.66 1009.85 1010.14 1010.34 1010.58 1010.90 1011.09 1011.26 1011.66 1011.78 1011.93 1012.17 1012.41 1012.70 1012.97 1013.05 1013.14 1013.09 1013.41 1013.73 1013.97 1014.17 1014.29 1014.58
1007.02 1006.70 1006.78 1006.61 1006.85 1007.46 1007.05 1006.82 1006.46 1006.02 1005.70 1004.82 1004.29 1004.17 1003.90 1004.78 1004.46 1004.02 1004.26 1005.09 1006.78 1006.38 1004.26 1004.05 1004.41 1004.85 1005.26 1005.49 1005.90 1006.38 1006.78 1007.22 1007.66 1007.97 1008.22 1008.46 1008.70 1008.90 1009.14 1009.38 1009.61 1009.82 1010.05 1010.26 1010.26 1010.53 1010.97 1011.22 1011.46 1011.70 1011.73 1012.02 1012.41 1012.61 1012.58 1012.70 1012.61 1012.97 1013.26 1013.58 1013.82 1014.02 1014.22
1007.53 1007.34 1007.09 1007.09 1007.14 1007.41 1007.53 1007.58 1007.41 1006.82 1006.29 1005.82 1004.93 1004.61 1004.38 1004.53 1004.49 1004.17 1004.17 1004.82 1005.90 1007.29 1005.29 1003.70 1003.97 1004.29 1004.73 1005.05 1005.41 1005.78 1006.26 1006.70 1007.09 1007.53 1007.73 1007.90 1008.22 1008.49 1008.82 1009.05 1009.26 1009.22 1009.38 1009.66 1009.93 1010.34 1010.58 1010.73 1011.05 1011.22 1011.41 1011.53 1011.85 1012.09 1012.14 1012.26 1012.22 1012.53 1012.82 1013.14 1013.46 1013.73 1014.02
1008.17 1007.93 1007.90 1007.49 1007.38 1007.09 1006.85 1006.78 1006.78 1006.26 1005.78 1005.41 1005.02 1004.61 1004.46 1004.38 1004.14 1003.90 1004.14 1004.58 1005.41 1005.73 1004.66 1003.49 1003.66 1004.02 1004.29 1004.61 1004.85 1005.22 1005.66 1006.05 1006.46 1006.97 1007.29 1007.49 1007.73 1008.09 1008.38 1008.58 1008.78 1008.93 1009.02 1009.26 1009.58 1009.93 1010.22 1010.34 1010.61 1010.78 1010.90 1011.05 1011.26 1011.66 1011.85 1011.82 1011.82 1012.26 1012.58 1012.85 1013.17 1013.46 1013.82
1008.78 1008.49 1008.34 1008.09 1007.82 1007.53 1007.14 1006.73 1006.61 1006.58 1006.41 1005.66 1005.09 1004.78 1004.46 1004.34 1003.82 1003.70 1003.66 1003.58 1004.02 1003.93 1003.58 1003.22 1003.29 1003.61 1003.78 1004.17 1004.41 1004.61 1004.90 1005.41 1005.97 1006.38 1006.73 1007.09 1007.38 1007.66 1007.93 1008.14 1008.34 1008.61 1008.61 1008.82 1009.02 1009.17 1009.41 1009.70 1009.85 1010.29 1010.58 1010.58 1010.73 1011.14 1011.46 1011.26 1011.46 1011.85 1012.26 1012.58 1012.90 1013.26 1013.73
1009.26 1009.02 1008.61 1008.22 1007.85 1007.61 1007.34 1007.14 1006.90 1006.38 1005.93 1005.61 1005.49 1005.38 1004.85 1004.29 1003.93 1003.73 1003.58 1003.90 1003.70 1003.26 1003.05 1002.82 1003.05 1003.26 1003.38 1003.58 1003.73 1004.05 1004.34 1004.73 1005.34 1005.85 1006.26 1006.58 1006.97 1007.22 1007.38 1007.66 1007.93 1008.09 1008.05 1008.49 1008.66 1008.97 1009.17 1009.34 1009.46 1009.53 1009.90 1010.22 1010.34 1010.61 1010.85 1010.90 1011.02 1011.34 1011.70 1012.14 1012.46 1013.17 1013.41
1009.58 1009.26 1008.90 1008.49 1008.02 1007.70 1007.53 1007.22 1006.82 1006.26 1005.82 1005.58 1005.38 1005.05 1004.66 1004.29 1004.05 1003.82 1003.61 1003.41 1003.14 1003.05 1002.78 1002.61 1002.70 1002.66 1002.90 1003.02 1003.05 1003.29 1003.66 1004.09 1004.70 1005.29 1005.73 1006.09 1006.46 1006.61 1006.78 1006.85 1007.09 1007.41 1007.46 1007.97 1008.22 1008.46 1008.53 1008.66 1008.93 1009.02 1009.17 1009.58 1009.90 1009.97 1010.41 1010.46 1010.49 1010.82 1011.17 1011.58 1012.09 1012.46 1012.85
1010.26 1009.90 1009.38 1009.02 1008.70 1008.41 1008.05 1007.66 1007.26 1006.78 1006.26 1005.97 1005.82 1005.38 1005.09 1004.85 1004.61 1004.34 1003.93 1003.34 1003.05 1002.85 1002.78 1002.46 1002.17 1002.09 1002.41 1002.49 1002.49 1002.82 1003.17 1003.58 1004.05 1004.58 1005.05 1005.49 1005.73 1005.97 1006.38 1006.49 1006.58 1006.66 1006.90 1007.22 1007.41 1007.70 1007.90 1008.17 1008.53 1008.73 1008.78 1008.85 1009.14 1009.38 1009.82 1009.97 1010.14 1010.41 1010.70 1011.09 1011.53 1012.05 1012.17
1010.78 1010.29 1009.82 1009.29 1008.97 1008.82 1008.46 1007.97 1007.61 1007.26 1007.02 1006.66 1006.29 1005.73 1005.34 1005.05 1004.85 1004.61 1004.17 1003.53 1002.93 1002.82 1002.66 1002.17 1001.61 1001.34 1001.49 1001.93 1002.17 1002.38 1002.70 1002.97 1003.49 1003.85 1004.29 1004.78 1005.14 1005.46 1005.78 1006.02 1006.34 1006.46 1006.61 1006.82 1006.93 1007.26 1007.46 1007.73 1008.02 1008.38 1008.46 1008.41 1008.66 1008.90 1009.14 1009.49 1009.82 1010.14 1010.41 1010.66 1011.09 1011.38 1011.53
1010.90 1010.58 1010.17 1009.66 1009.34 1008.90 1008.61 1008.38 1008.09 1007.90 1007.41 1006.90 1006.49 1006.05 1005.61 1005.34 1005.26 1004.90 1004.26 1003.70 1003.26 1002.85 1002.05 1001.38 1001.09 1001.02 1001.14 1001.41 1001.70 1001.97 1002.26 1002.49 1002.85 1003.34 1003.61 1003.93 1004.49 1004.90 1005.34 1005.61 1005.90 1006.05 1006.34 1006.58 1006.66 1006.90 1007.17 1007.38 1007.61 1007.90 1008.09 1008.09 1008.17 1008.41 1008.58 1008.70 1009.26 1009.66 1010.02 1010.41 1010.78 1011.02 1011.09
1010.61 1010.34 1010.14 1009.85 1009.46 1009.05 1008.82 1008.46 1008.17 1007.70 1007.26 1006.93 1006.61 1006.17 1005.82 1005.58 1005.46 1004.93 1004.41 1003.97 1003.49 1002.53 1001.41 1000.85 1000.73 1000.82 1000.85 1000.97 1001.22 1001.46 1001.82 1002.09 1002.38 1002.70 1003.09 1003.41 1003.93 1004.61 1004.90 1004.97 1005.29 1005.70 1005.93 1006.14 1006.41 1006.73 1006.97 1007.09 1007.29 1007.53 1007.78 1007.78 1007.82 1007.97 1008.14 1008.14 1008.38 1009.02 1009.70 1009.93 1010.38 1010.70 1010.70
1010.93 1010.66 1010.29 1009.85 1009.41 1009.14 1008.93 1008.61 1008.22 1007.85 1007.46 1006.85 1006.58 1006.29 1005.97 1005.70 1005.41 1004.85 1004.29 1003.97 1002.85 1001.73 1001.17 1000.73 1000.41 1000.41 1000.49 1000.58 1000.73 1000.97 1001.29 1001.61 1002.02 1002.41 1002.61 1003.05 1003.38 1003.97 1004.53 1004.70 1005.05 1005.29 1005.58 1005.97 1006.29 1006.53 1006.82 1006.97 1007.09 1007.29 1007.53 1007.66 1007.66 1007.61 1007.70 1007.78 1007.97 1008.22 1009.02 1009.61 1009.82 1010.14 1010.38
1011.02 1010.85 1010.58 1010.22 1010.02 1009.41 1008.82 1008.53 1008.14 1007.73 1007.29 1006.93 1006.58 1006.26 1005.90 1005.70 1005.29 1004.58 1004.14 1003.38 1001.90 1001.29 1000.82 1000.49 1000.17 1000.02 1000.17 1000.26 1000.22 1000.38 1000.73 1001.05 1001.46 1001.78 1002.05 1002.49 1002.93 1003.41 1003.97 1004.34 1004.53 1004.90 1005.22 1005.53 1005.93 1006.34 1006.61 1006.70 1006.82 1007.02 1007.34 1007.58 1007.66 1007.49 1007.41 1007.38 1007.53 1007.90 1008.09 1008.82 1009.29 1009.49 1009.73
1011.09 1011.05 1010.82 1010.58 1010.22 1009.70 1009.17 1008.70 1008.22 1007.73 1007.17 1006.85 1006.53 1006.05 1005.61 1005.17 1004.93 1004.14 1003.58 1002.17 1001.29 1000.97 1000.58 1000.22 999.90 999.73 999.82 999.82 999.78 999.85 1000.05 1000.46 1000.90 1001.26 1001.58 1001.90 1002.34 1003.05 1003.46 1003.85 1004.14 1004.73 1004.70 1005.09 1005.53 1005.82 1006.22 1006.29 1006.41 1006.70 1006.85 1007.09 1007.34 1007.29 1007.14 1007.02 1007.14 1007.53 1007.85 1007.97 1008.49 1008.90 1009.22
1010.97 1010.82 1010.70 1010.41 1010.05 1009.73 1009.34 1008.70 1008.26 1007.85 1007.26 1006.58 1006.29 1005.78 1005.26 1004.78 1004.41 1003.93 1002.58 1001.22 1000.66 1000.22 999.90 999.70 999.58 999.46 999.38 999.29 999.34 999.38 999.53 1000.14 1000.49 1000.73 1001.02 1001.34 1001.66 1002.09 1002.49 1003.09 1003.61 1004.09 1004.38 1004.70 1004.97 1005.26 1005.61 1005.85 1006.02 1006.26 1006.41 1006.61 1006.66 1006.82 1006.78 1006.66 1006.78 1007.09 1007.41 1007.85 1007.97 1008.46 1008.73
1010.90 1010.70 1010.66 1010.58 1010.26 1009.93 1009.61 1009.17 1008.73 1008.22 1007.61 1007.02 1006.22 1005.70 1005.02 1004.53 1003.93 1003.38 1002.22 1001.17 1000.26 999.66 999.22 999.14 998.97 998.97 998.90 998.93 998.93 998.93 999.09 999.66 1000.09 1000.46 1000.61 1000.85 1001.17 1001.49 1001.93 1002.34 1002.85 1003.41 1003.90 1004.14 1004.46 1004.73 1004.97 1005.29 1005.58 1005.82 1005.93 1006.17 1006.22 1006.26 1006.34 1006.41 1006.46 1006.66 1006.97 1007.38 1008.02 1008.41 1008.73
1010.82 1010.38 1010.09 1010.09 1009.97 1009.82 1009.58 1009.29 1009.02 1008.61 1008.14 1007.41 1006.49 1005.73 1005.02 1004.46 1003.90 1003.02 1002.05 1000.82 999.85 999.02 998.58 998.61 998.53 998.58 998.49 998.41 998.41 998.58 998.66 998.97 999.26 999.78 1000.22 1000.46 1000.78 1001.34 1001.73 1001.90 1002.14 1002.73 1003.05 1003.22 1003.38 1003.90 1004.38 1004.61 1004.93 1005.14 1005.26 1005.53 1005.66 1005.90 1006.14 1006.22 1006.09 1006.22 1006.49 1006.97 1007.38 1007.82 1008.17
1010.61 1010.41 1010.09 1009.82 1009.38 1009.17 1009.26 1009.02 1008.78 1008.46 1008.02 1007.29 1006.49 1005.90 1005.22 1004.58 1003.90 1002.97 1002.05 1000.97 999.97 999.09 998.41 998.17 998.09 998.05 997.97 997.97 998.02 998.22 998.17 998.38 998.78 999.17 999.61 1000.09 1000.38 1000.53 1000.78 1001.34 1001.78 1002.05 1002.09 1001.93 1002.22 1002.66 1003.14 1003.61 1003.85 1003.97 1004.05 1004.38 1004.90 1005.38 1005.82 1005.78 1005.78 1005.29 1004.97 1005.58 1006.09 1006.70 1007.53
1010.29 1010.22 1010.17 1009.97 1009.61 1009.29 1009.02 1008.70 1008.34 1008.05 1007.78 1007.14 1006.46 1005.97 1005.53 1004.90 1004.05 1003.05 1002.09 1001.34 1000.46 999.58 998.78 997.85 997.73 997.82 997.78 997.66 997.70 997.70 997.90 998.09 998.34 998.70 999.26 999.78 1000.29 1000.66 1000.82 1000.58 1000.82 1001.05 1001.70 1002.09 1001.90 1002.05 1002.29 1002.66 1003.05 1002.97 1003.26 1003.85 1003.82 1003.78 1004.41 1004.66 1004.09 1004.05 1004.85 1005.17 1005.61 1005.90 1006.02
1010.17 1010.26 1010.17 1009.82 1009.66 1009.34 1009.14 1008.73 1008.17 1007.70 1007.41 1006.97 1006.70 1006.49 1005.93 1005.02 1004.02 1003.14 1002.34 1001.61 1000.82 1000.05 999.17 998.02 997.58 997.46 997.38 997.34 997.29 997.26 997.46 997.82 998.22 998.58 999.02 999.41 999.85 1000.26 1000.78 1001.46 1001.70 1001.85 1001.97 1001.90 1001.90 1002.05 1002.34 1002.49 1002.70 1002.90 1002.97 1003.05 1003.58 1003.38 1003.22 1003.29 1003.58 1003.97 1004.34 1004.82 1005.14 1005.53 1005.82
1009.93 1010.09 1010.02 1009.85 1009.78 1009.53 1009.22 1008.85 1008.26 1007.85 1007.58 1007.29 1007.17 1006.66 1005.70 1004.93 1004.14 1003.53 1002.78 1001.97 1001.17 1000.26 999.46 998.49 997.70 997.34 997.05 996.85 996.85 997.09 997.46 997.73 998.14 998.49 999.02 999.34 999.58 999.97 1000.66 1001.46 1002.22 1002.34 1002.26 1002.46 1002.29 1002.05 1002.05 1002.38 1002.61 1002.78 1002.90 1002.90 1002.97 1003.29 1003.58 1003.61 1003.78 1004.02 1004.38 1004.70 1005.05 1005.41 1005.70
Wind_Speed
19 17 16 16 15 15 16 16 14 14 17 17 17 17 18 17 17 16 17 18 19 18 17 15 16 15 16 15 15 13 13 12 10 11 10 9 10 10 9 7 7 7 8 8 8 8 7 8 7 8 8 8 6 6 6 6 5 5 6 6 7 6 6
18 18 18 16 16 17 18 18 15 13 13 16 16 17 17 18 16 17 17 18 19 19 17 16 16 16 16 16 14 14 14 14 12 10 9 8 8 10 10 9 9 8 8 7 7 7 7 8 7 8 9 8 7 6 6 6 6 6 5 6 6 6 6
19 19 19 17 17 17 18 16 17 15 14 15 16 16 18 18 16 17 17 18 19 18 16 17 16 16 15 15 14 15 15 14 13 13 12 11 11 12 11 10 10 9 8 8 8 7 8 8 8 8 9 9 8 7 6 6 6 6 5 5 5 6 6
21 22 23 22 20 19 18 18 18 17 16 17 18 18 17 16 16 16 17 19 20 19 19 18 16 16 15 15 14 14 15 15 15 14 14 12 12 10 10 10 9 9 8 9 9 9 8 8 8 8 10 9 8 7 7 7 7 6 6 6 5 5 5
21 22 18 17 18 16 16 17 18 17 18 18 18 17 16 15 16 15 16 19 20 21 20 19 16 15 13 14 12 12 15 16 15 14 13 12 12 10 11 12 11 11 11 9 9 10 8 9 8 9 9 9 9 8 8 7 7 7 6 7 6 5 5
19 19 17 17 17 16 17 18 18 19 18 19 18 17 17 17 16 19 18 19 19 19 18 18 18 17 17 16 14 13 13 14 14 14 14 13 13 12 12 12 12 12 11 12 9 10 10 10 9 10 10 10 10 10 9 8 8 8 7 7 7 6 6
16 16 16 17 17 16 18 17 17 18 18 18 18 16 17 17 18 18 17 18 20 21 20 20 19 17 16 15 15 15 15 15 14 15 13 13 14 14 13 11 12 12 12 11 10 9 11 11 11 11 10 10 10 11 10 9 9 8 8 7 7 7 6
15 14 15 17 15 17 17 17 17 17 15 15 16 16 17 17 16 17 18 17 18 19 19 20 19 17 16 15 15 16 15 15 14 14 13 14 14 14 13 12 12 12 10 12 12 10 11 12 11 10 11 10 10 10 10 10 10 9 9 8 8 8 6
18 19 18 17 18 17 17 16 16 17 17 17 18 17 17 18 18 17 18 18 18 19 20 19 19 17 16 16 15 17 15 15 14 14 15 15 14 15 14 13 12 11 12 11 11 11 10 11 11 12 11 10 9 9 9 10 10 9 9 9 9 9 8
20 19 19 19 18 18 17 16 15 14 15 16 16 16 18 18 17 16 16 17 18 20 20 19 17 17 16 16 17 17 16 15 15 16 16 16 14 15 14 13 12 11 12 11 11 12 10 10 11 11 12 12 11 10 9 10 10 10 10 11 10 10 9
21 19 19 20 19 18 16 16 16 14 15 16 16 16 16 17 17 16 17 17 18 18 19 18 16 17 17 17 18 18 17 17 16 17 17 16 14 16 15 14 13 12 13 12 12 13 11 10 10 11 12 12 12 12 11 11 11 11 10 10 10 10 10
9 10 16 21 21 18 19 18 16 14 16 15 15 16 15 15 15 15 15 17 16 17 18 18 16 17 17 17 18 17 18 17 17 17 18 17 16 16 15 14 14 13 13 13 13 13 13 12 11 11 12 12 12 12 12 10 11 11 11 11 10 10 10
2 18 14 19 19 18 18 16 17 17 18 18 18 15 13 14 15 15 15 16 16 16 17 17 17 17 17 17 18 17 17 17 17 16 17 16 16 14 14 14 14 14 14 14 14 14 14 13 13 11 12 12 12 12 12 11 11 11 11 10 10 10 10
24 20 15 11 1 16 20 19 18 19 18 17 16 15 13 13 14 16 16 17 16 16 16 15 17 17 16 16 17 16 17 16 16 16 16 15 15 14 14 14 14 14 14 13 14 13 15 15 14 13 12 12 12 12 11 11 10 10 10 10 10 10 10
19 20 22 22 23 19 9 1 6 13 15 16 17 16 15 14 14 15 14 14 15 15 16 16 17 17 16 16 16 16 16 15 14 14 14 15 15 14 15 15 14 13 13 13 14 12 13 14 14 14 13 12 12 12 11 11 11 9 10 11 11 10 11
18 17 18 19 19 17 16 15 14 12 10 9 6 2 4 6 10 14 14 13 15 15 14 15 16 16 16 16 16 14 14 14 14 14 14 15 15 15 15 15 14 14 14 14 14 13 12 13 14 14 14 13 13 12 11 10 9 12 17 15 12 11 10
17 16 17 17 16 18 17 16 15 12 9 8 8 6 6 7 10 13 8 6 12 13 13 14 14 15 16 15 14 14 13 14 14 14 15 15 15 14 14 15 14 13 14 14 14 14 12 11 14 14 13 14 13 13 12 10 10 17 17 18 18 12 10
16 16 17 16 16 16 17 18 18 16 14 6 6 7 4 3 5 7 3 11 14 11 12 12 14 16 15 14 14 15 15 14 15 15 15 15 15 15 14 14 14 13 14 14 15 14 13 11 13 14 14 13 13 14 13 12 14 18 18 19 19 16 11
17 16 15 15 16 15 15 15 15 16 14 13 7 5 7 8 1 7 9 9 11 15 11 12 14 15 15 15 15 16 15 15 15 16 16 16 15 14 14 14 14 14 13 16 15 14 14 13 11 13 13 13 13 14 14 12 16 18 20 19 19 19 16
16 16 16 14 14 13 9 7 8 9 12 10 10 6 4 11 8 6 7 8 7 15 16 12 13 15 15 15 16 16 15 15 16 16 16 15 15 14 15 15 15 15 13 13 13 14 14 14 13 12 13 14 14 13 12 13 15 18 19 20 20 20 16
15 16 16 16 16 15 14 11 8 11 13 14 14 11 8 3 9 8 10 11 13 19 17 12 11 13 14 15 16 16 16 17 17 17 16 15 15 15 16 16 14 14 13 12 14 15 15 15 14 12 13 14 13 12 12 12 17 17 18 19 20 20 16
16 16 16 15 14 14 14 16 15 14 12 12 14 13 12 11 11 8 4 8 14 17 14 11 11 12 15 15 16 17 17 17 17 16 16 16 16 16 16 16 15 14 13 12 12 12 13 13 13 12 12 13 14 14 13 12 18 18 19 20 19 19 12
15 14 14 14 15 15 13 13 15 14 13 12 10 11 13 12 12 11 9 5 7 9 10 10 11 11 14 16 16 17 17 17 17 17 16 16 16 17 17 16 16 14 12 12 12 13 14 14 14 13 13 12 13 14 13 12 16 20 20 20 21 15 11
13 14 14 15 15 14 16 15 14 14 14 14 13 12 11 12 12 13 12 9 9 8 8 10 11 10 12 15 16 17 17 17 17 17 16 16 17 17 16 16 14 15 13 13 13 14 14 14 13 13 13 14 12 13 13 12 14 22 21 22 21 18 13
13 13 14 14 15 16 16 15 14 15 14 15 16 16 16 16 16 15 13 11 10 9 9 10 11 12 12 13 14 15 15 16 16 17 17 17 17 16 16 16 15 14 13 13 13 12 12 12 13 13 12 13 14 14 13 12 13 20 22 22 22 19 12
12 14 14 14 13 13 14 13 15 15 15 15 15 16 17 16 15 16 14 13 11 11 10 10 11 12 10 10 12 13 15 15 16 16 17 17 16 14 14 12 12 14 14 13 12 11 11 12 13 14 13 13 13 13 13 11 8 15 21 22 22 23 15
10 11 13 14 14 14 12 13 12 13 14 12 13 15 15 15 15 15 15 15 13 13 13 12 9 10 10 11 12 13 15 14 16 17 16 15 15 14 13 12 13 13 14 14 13 12 10 13 13 14 13 12 12 12 12 13 11 12 21 20 21 23 20
11 12 11 10 13 13 14 13 13 14 13 13 15 15 14 14 15 15 14 14 15 15 14 13 9 8 10 12 13 14 14 15 14 15 14 14 14 14 14 13 13 12 14 13 13 14 13 10 12 13 12 12 12 12 12 13 16 10 17 21 21 22 23
10 12 14 16 16 15 15 14 14 14 15 14 14 14 14 15 16 16 15 15 18 16 14 12 9 9 11 12 14 14 15 14 15 14 12 13 14 14 14 12 13 13 13 14 14 14 14 12 11 12 12 12 11 11 11 11 12 17 14 19 22 23 23
6 9 12 12 13 16 17 14 14 15 15 14 14 14 14 13 15 16 16 19 18 16 15 13 11 9 12 13 14 15 14 15 15 15 14 14 14 14 14 14 14 13 13 14 14 13 14 12 10 11 12 13 11 11 11 10 10 14 19 18 23 23 25
7 8 9 11 14 14 14 15 16 17 18 16 17 16 14 13 14 18 19 19 16 16 15 14 12 10 13 14 14 15 15 14 14 15 15 14 15 14 15 15 14 14 13 13 14 14 14 13 12 12 12 12 13 12 11 11 10 10 15 22 22 24 24
7 6 7 10 12 15 15 15 16 17 20 20 19 17 14 15 16 19 19 17 15 15 15 13 12 12 14 14 14 15 15 15 15 16 16 15 14 15 14 14 14 14 13 13 13 14 14 13 13 12 12 13 12 12 12 12 11 11 11 14 18 19 23
8 8 8 9 10 12 12 12 15 18 20 21 19 17 17 17 17 18 19 18 17 17 15 12 12 12 13 15 15 15 15 16 14 14 15 15 14 13 13 13 13 13 13 14 14 15 14 14 14 13 13 12 12 12 12 12 12 11 10 11 10 10 12
8 10 9 8 10 11 10 11 14 16 18 18 18 16 17 17 18 19 21 19 17 17 13 11 11 13 14 16 14 14 15 16 19 18 14 15 15 13 13 13 14 14 15 16 17 16 15 15 15 15 15 13 12 11 11 12 12 11 12 11 11 11 10
7 6 7 11 13 13 12 12 14 15 17 17 15 17 18 19 19 19 20 20 19 18 12 11 11 13 14 14 14 14 15 15 15 14 14 14 14 13 13 13 13 14 14 15 13 13 15 16 15 16 15 14 13 13 12 12 13 13 13 15 17 16 12
7 5 6 8 9 11 13 14 14 15 14 14 17 18 17 18 18 18 18 18 19 18 14 11 11 13 13 13 14 14 14 13 13 14 13 13 13 12 10 7 8 13 14 13 15 19 18 14 14 15 13 14 13 14 15 15 14 14 19 20 21 22 23
6 4 8 9 11 12 13 15 15 17 16 16 16 17 17 17 17 18 19 20 19 18 17 10 11 11 12 13 14 15 14 13 12 13 12 12 12 11 11 7 1 11 9 6 9 16 17 18 17 15 15 14 12 14 18 18 15 18 21 21 22 22 21
2 2 4 7 9 10 13 16 17 17 17 15 16 17 17 18 17 18 19 20 20 19 17 14 10 11 12 13 13 14 12 11 11 11 11 10 10 11 10 9 7 1 7 11 8 11 19 18 17 16 16 17 15 11 10 12 13 16 18 20 20 21 20
Wind_Direction
173 172 174 176 177 183 182 184 177 173 176 176 177 173 174 175 173 173 174 177 180 180 184 182 183 182 183 183 182 182 182 181 181 181 178 177 179 180 181 183 173 172 170 169 178 177 177 178 177 177 175 185 179 184 178 175 180 170 170 160 167 178 188
175 176 176 174 178 180 181 182 181 173 170 174 176 174 176 178 174 174 175 175 179 181 182 185 185 187 186 185 184 183 183 184 182 183 182 176 175 178 179 181 179 177 177 177 171 176 174 185 179 176 177 181 187 178 176 169 171 174 163 169 163 179 186
174 176 173 175 176 177 176 177 180 176 172 173 177 178 180 180 175 173 172 173 178 180 182 187 189 189 189 188 186 187 187 184 183 183 184 185 181 178 180 178 182 181 182 177 175 178 183 183 185 177 177 179 184 182 174 173 169 166 164 167 172 170 190
175 177 179 177 176 173 174 176 178 177 178 179 181 184 180 176 174 172 172 174 176 180 184 188 188 190 192 191 192 190 189 188 188 187 187 187 186 178 177 180 181 182 180 184 183 184 187 186 180 179 177 176 182 181 176 174 174 173 172 169 179 185 186
178 176 170 172 173 170 172 178 180 179 182 182 183 184 182 172 173 172 174 177 178 182 184 184 187 190 192 194 195 195 193 190 190 190 189 187 186 182 180 181 182 184 188 185 182 186 186 188 180 180 179 177 179 180 181 176 176 179 174 175 181 188 198
175 173 174 170 171 172 176 178 180 182 181 182 183 182 184 178 176 176 176 176 180 182 182 184 187 187 191 194 196 197 196 196 193 190 189 187 184 188 187 185 183 184 184 190 183 187 186 185 183 180 178 180 178 182 180 179 181 180 179 175 179 186 189
168 168 164 171 171 175 177 177 180 182 181 182 183 182 181 182 180 178 176 177 179 180 182 186 188 188 193 192 197 197 197 196 193 192 191 189 189 190 191 189 186 186 186 186 190 184 186 185 185 182 181 178 181 182 181 180 183 183 184 178 181 185 188
168 164 169 173 174 178 180 178 178 181 179 179 183 181 182 184 182 179 181 178 178 180 184 186 188 190 189 193 196 199 199 198 195 194 191 191 190 192 191 192 190 188 182 186 192 187 188 187 184 184 183 181 184 183 182 183 181 182 179 184 183 192 193
166 171 174 178 181 178 179 180 181 179 177 180 183 183 183 184 187 185 181 176 181 183 185 186 187 188 189 192 195 199 199 197 198 195 194 194 192 195 193 193 192 187 188 187 189 193 190 187 183 183 182 185 186 185 187 186 186 182 181 184 184 189 202
172 174 177 178 176 175 176 181 179 176 178 180 184 185 185 187 186 187 184 180 181 185 183 184 186 187 189 192 196 197 196 197 197 196 196 196 195 195 194 193 192 188 190 189 187 191 193 186 184 181 183 186 187 189 190 190 190 189 185 184 185 189 195
176 170 176 178 177 173 174 175 175 176 179 183 185 186 185 184 185 188 188 184 182 183 182 184 185 188 190 192 196 196 197 198 197 198 197 197 196 196 195 193 192 191 191 189 190 190 190 188 184 181 184 188 189 191 192 192 190 190 189 186 187 188 191
203 185 173 176 177 176 174 174 175 176 180 184 186 188 187 185 185 188 188 189 183 178 180 183 185 189 190 192 195 196 198 197 197 198 198 197 198 197 195 193 192 192 193 191 190 188 191 188 187 184 187 190 191 193 195 192 192 191 190 188 187 188 191
83 176 180 182 176 177 175 170 176 181 180 181 185 185 181 183 186 190 192 189 186 181 179 181 185 188 189 190 193 195 197 196 197 197 197 197 197 196 196 196 193 192 193 193 193 189 189 189 189 189 188 192 192 193 195 192 193 193 192 190 189 190 192
41 40 28 21 180 175 172 177 181 182 181 180 181 180 179 185 188 192 193 190 186 182 180 182 185 188 189 187 191 194 196 196 195 196 197 196 196 196 196 196 194 193 193 192 196 194 191 189 189 190 191 192 195 195 192 193 192 192 194 192 191 190 195
37 35 28 31 39 36 26 20 190 184 182 182 181 182 184 187 192 195 194 191 188 184 183 180 181 186 188 188 191 194 193 192 193 195 195 195 195 196 195 195 194 192 191 193 198 199 195 191 189 188 191 192 194 195 194 195 197 193 193 194 195 193 197
34 32 34 36 36 39 41 37 33 31 31 23 14 339 195 191 198 196 191 191 187 188 183 177 183 184 187 189 190 190 189 188 190 192 193 195 196 197 195 194 193 191 191 193 196 199 197 192 190 190 191 191 192 194 195 198 200 201 195 194 195 197 200
27 27 30 32 30 33 30 20 20 27 36 35 37 42 61 97 47 10 325 228 192 191 184 178 181 185 187 189 185 185 185 187 189 190 193 195 196 196 196 195 193 191 191 192 193 196 198 192 192 193 193 193 192 194 197 198 201 200 197 198 198 197 200
22 22 23 22 28 29 24 13 8 7 10 30 96 55 12 11 83 96 82 328 296 211 185 181 181 185 187 184 181 183 184 187 188 190 193 194 196 195 197 196 195 194 190 190 190 193 195 195 194 193 193 195 195 196 198 201 200 194 196 198 200 200 200
14 16 18 17 22 22 17 7 356 352 354 351 20 64 346 320 187 161 173 189 258 283 216 187 184 185 185 182 181 183 183 185 189 191 192 194 194 194 196 197 197 197 192 191 190 189 193 196 190 193 193 194 195 198 200 203 200 192 194 197 199 201 202
13 9 7 12 16 16 11 14 357 341 331 332 353 358 230 218 222 196 186 177 203 259 243 200 185 185 186 182 182 182 183 185 188 192 193 191 192 193 196 198 200 199 194 191 188 191 194 196 193 190 193 194 195 197 200 203 202 194 193 196 197 201 201
10 5 1 359 1 2 354 354 357 354 351 348 342 337 340 275 217 204 207 188 199 231 240 205 188 184 186 186 183 181 183 186 188 190 191 192 191 193 197 199 200 199 196 191 190 191 193 195 196 191 192 194 193 194 198 204 198 193 194 195 196 199 198
3 1 357 355 352 350 352 351 352 349 340 333 333 331 327 321 320 307 213 184 211 216 218 205 192 186 185 187 185 185 184 185 187 189 190 191 192 194 196 198 198 199 197 194 193 194 193 197 197 194 192 193 193 193 198 201 190 190 192 195 197 194 196
360 355 352 349 351 346 353 347 341 335 330 329 326 319 312 316 314 309 313 296 248 219 214 199 199 189 189 189 186 186 185 186 186 188 190 191 194 196 196 195 197 199 196 197 193 190 193 195 196 196 194 192 194 196 198 199 188 188 191 193 195 186 199
1 354 352 348 347 349 346 340 334 334 332 329 328 324 320 321 317 312 302 291 290 275 231 209 206 199 189 192 189 187 186 185 186 188 190 192 197 197 197 195 195 198 195 198 195 193 194 193 196 196 198 197 194 194 196 200 190 189 190 192 190 187 195
359 354 349 349 347 346 339 336 334 335 336 335 331 329 326 322 317 308 299 288 279 276 259 226 214 206 196 195 190 187 187 186 186 188 190 194 198 197 197 196 195 195 195 201 200 197 190 192 195 197 198 201 202 194 190 198 190 191 191 192 188 190 196
356 352 348 345 346 341 334 332 334 337 337 332 326 325 320 320 316 310 302 294 281 271 262 246 227 212 200 184 187 188 188 188 188 189 191 194 195 195 198 197 197 196 197 199 201 198 191 190 194 196 198 198 202 203 202 197 177 192 196 192 190 190 191
356 346 343 345 343 339 339 337 333 330 327 324 324 322 319 317 313 304 303 301 294 277 267 255 241 220 193 182 187 189 190 189 189 190 192 191 191 192 194 196 199 198 198 199 200 200 196 192 193 196 198 197 199 202 202 205 191 189 191 194 191 193 191
350 348 348 341 339 345 342 335 330 325 325 326 323 321 317 313 304 297 294 293 287 280 268 263 239 212 200 184 187 188 189 190 190 190 189 188 186 190 196 197 197 199 201 201 201 201 201 193 190 194 196 197 198 201 201 201 196 178 193 189 191 193 197
357 349 346 343 342 344 342 336 332 329 325 325 323 319 311 308 299 293 290 284 279 278 276 264 246 209 202 193 186 186 187 189 185 186 189 188 188 190 194 192 195 198 198 201 203 203 202 198 191 191 192 195 199 200 201 198 197 179 184 194 191 195 200
351 348 344 341 336 337 340 337 331 327 326 324 323 318 310 300 294 289 285 280 277 277 276 269 246 215 203 196 190 186 186 185 185 186 188 187 185 190 191 193 196 196 197 199 201 202 203 202 195 191 191 194 197 198 201 199 195 188 183 188 195 196 199
345 341 336 338 338 333 334 336 330 327 326 328 323 318 310 302 291 287 281 276 275 271 268 260 242 214 204 199 193 187 185 183 184 186 188 188 186 189 192 194 192 197 199 197 200 202 203 203 197 195 193 193 194 197 200 199 195 187 193 189 193 198 200
330 330 332 339 341 341 337 335 333 331 328 327 327 320 319 316 310 297 287 285 282 274 265 250 232 213 205 200 193 188 183 183 186 186 188 188 190 192 192 191 193 199 198 198 201 202 202 202 200 198 196 195 195 196 198 198 194 190 191 199 195 198 201
324 329 337 338 334 331 332 339 337 331 327 325 324 322 321 318 310 305 299 291 285 277 261 238 220 210 205 199 193 188 185 183 186 187 189 190 190 192 191 193 195 198 199 199 201 202 203 201 200 202 199 196 196 195 196 197 197 192 190 187 189 200 205
328 325 328 329 332 334 325 336 339 330 325 322 320 321 320 318 313 308 304 298 294 282 251 221 213 210 205 198 191 189 187 187 186 185 189 191 190 191 193 195 197 199 201 200 199 199 200 199 200 202 199 199 195 192 194 198 198 193 187 185 184 194 193
325 317 322 333 336 337 333 336 339 332 323 318 322 327 324 320 316 310 312 315 313 303 253 220 212 211 206 199 193 192 190 188 186 189 188 189 192 196 195 195 198 204 208 207 202 203 199 198 202 200 201 199 198 196 197 199 202 202 186 182 183 182 187
318 321 332 328 327 329 330 334 337 337 324 322 330 328 322 318 316 315 316 316 314 312 288 232 209 209 206 199 196 193 191 191 188 187 187 188 191 196 199 204 207 206 205 204 206 206 207 206 204 200 196 201 204 201 200 201 207 178 174 182 184 188 186
317 341 335 328 332 332 334 332 335 339 332 333 332 323 317 317 321 322 322 319 314 313 309 264 216 208 206 199 199 195 191 190 186 184 187 189 192 194 192 182 75 35 22 326 218 201 210 205 212 213 209 202 202 208 215 213 199 169 180 184 187 190 192
303 340 318 326 328 331 334 332 338 340 331 328 324 322 325 327 325 325 321 320 315 312 305 296 248 220 210 203 202 195 189 187 185 183 187 193 192 194 185 174 171 245 24 34 344 237 199 202 205 204 203 208 205 199 215 213 186 175 180 185 187 191 193